Regional Weather Roundup
Issued by NWS Jackson, KY

Home | Current Version | Previous Version | Graphics & Text | Print | Product List | Glossary On
Versions: 1 2 3 4 5 6 7 8 9 10 11 12 13 14 15 16 17 18 19 20 21 22 23 24 25 26 27 28 29 30 31 32 33 34 35 36 37 38 39 40 41 42 43 44 45 46 47 48 49 50
104
ASUS43 KJKL 261910
RWRJKL

EAST KENTUCKY HOURLY WEATHER ROUNDUP
NATIONAL WEATHER SERVICE JACKSON KY
300 PM EDT WED APR 26 2017

NOTE: "FAIR" INDICATES FEW OR NO CLOUDS BELOW 12,000 FEET WITH
NO SIGNIFICANT WEATHER AND/OR OBSTRUCTIONS TO VISIBILITY.

* THESE REPORTS ARE NOT UNDER NWS QUALITY CONTROL AND MAY NOT
  REPORT WEATHER SUCH AS PRECIPITATION AND FOG.

KYZ079-080-083-085-087-088-110-112-115-119-120-262000
...EASTERN KENTUCKY...

CITY           SKY/WX    TMP DP  RH WIND       PRES   REMARKS
JACKSON        SUNNY     80  54  40 VRB5      29.73F
LONDON         SUNNY     79  53  40 S10       29.72F
SOMERSET*      SUNNY     79  52  38 S9        29.71F
MONTICELLO*    SUNNY     82  57  42 VRB6G20   29.71F
MIDDLESBORO*   SUNNY     80  57  46 SW9       29.76F
PIKE CO APT*     N/A     78  54  43 E6        29.76F
BIG SANDY APT* CLEAR     81  56  41 SE9       29.73F
ASHLAND*       MOSUNNY   82  57  42 S7        29.67
$$

KYZ035-036-041-042-044-050-067-078-099-262000
...CENTRAL KENTUCKY...

CITY           SKY/WX    TMP DP  RH WIND       PRES   REMARKS
MT STERLING*   SUNNY     81  54  39 SW9       29.71F
FLEMING/MASON* SUNNY     80  55  40 S15       29.70F
DANVILLE*      SUNNY     79  54  41 S10       29.71F
LEXINGTON      SUNNY     81  56  42 S15G23    29.69F
FRANKFORT      SUNNY     81  58  45 S16G25    29.65F
LOUISVILLE     MOSUNNY   83  61  47 S16G24    29.62F
LEBANON*         N/A     82  55  39 S15G21    29.68F
GLASGOW*       SUNNY     81  57  44 S9G18     29.68F
BOWLING GREEN  SUNNY     82  57  42 S14G25    29.67F
$$

KYZ091>093-OHZ055-061-077-WVZ005-015-034-035-042-262000
...SOUTHERN OHIO/WEST VIRGINIA...

CITY           SKY/WX    TMP DP  RH WIND       PRES   REMARKS
COVINGTON      MOSUNNY   79  62  56 S18G25    29.63F
COLUMBUS       PTSUNNY   82  53  36 S16G23    29.66F
DAYTON         MOSUNNY   79  57  46 S17G26    29.61F
WILMINGTON     SUNNY     78  58  49 S16G25    29.64F
HUNTINGTON     CLOUDY    81  55  40 S8        29.70F
CHARLESTON     SUNNY     81  55  40 NE3       29.73F
PINEVILLE*     SUNNY     81  50  34 MISG      29.83F
BECKLEY        SUNNY     75  52  44 SE8       29.82F
BLUEFIELD      SUNNY     74  50  42 VRB6      29.85S
$$

VAZ002-007-008-TNZ017-027-036-066-071-262000
...SOUTHWEST VIRGINIA/EAST TENNESSEE...

CITY           SKY/WX    TMP DP  RH WIND       PRES   REMARKS
WISE*          SUNNY     75  54  46 E6        29.84F
JONESVILLE*      N/A     79  57  47 SE6       29.80F
ABINGDON*      SUNNY     76  56  48 W8        29.83F
BRISTOL        MOSUNNY   78  56  46 VRB5      29.80F
KNOXVILLE      PTSUNNY   79  56  45 N3        29.75F
LAFOLLETTE*    CLEAR     77  59  53 S8        29.78F
OAK RIDGE      SUNNY     80  55  42 VRB7      29.76
CROSSVILLE     SUNNY     75  56  51 S13G21    29.76F
NASHVILLE      MOSUNNY   82  54  37 SW9       29.70F
$$

...KEY TO REMARKS...
VSB - VISIBILITY IN MILES
WCI - WIND CHILL INDEX
HX  - HEAT INDEX

$$




USA.gov is the U.S. government's official web portal to all federal, state and local government web resources and services.